CW5988 Weather Reports


time (UTC)temp
C
wind
direction
speed
KPH
gust
KPH
rain 1hr
cm
rain 24hr
cm
rain mn
cm
humidity
%
barometer
mb
20260502234941 14 252 9.7 29.0 0.00 0.00 0.00 75 1012.1
20260502234428 14 306 12.9 22.5 0.00 0.00 0.00 75 1012.2
20260502233935 14 268 9.7 22.5 0.00 0.00 0.00 75 1012.2
20260502233421 14 292 9.7 19.3 0.00 0.00 0.00 75 1012.2
20260502232928 14 261 8.0 24.1 0.00 0.00 0.00 75 1012.3
20260502232434 14 219 14.5 24.1 0.00 0.00 0.00 74 1012.3
20260502231921 14 221 12.9 22.5 0.00 0.00 0.00 74 1012.4
20260502231428 14 224 9.7 20.9 0.00 0.00 0.00 74 1012.4
20260502230930 14 256 11.3 22.5 0.00 0.00 0.00 74 1012.5
20260502230435 15 221 11.3 22.5 0.00 0.00 0.00 74 1012.4
20260502225936 15 268 9.7 22.5 0.00 0.00 0.00 74 1012.6
20260502225426 15 234 8.0 17.7 0.00 0.00 0.00 74 1012.7
20260502224933 15 256 6.4 19.3 0.00 0.00 0.00 74 1012.7
20260502224421 15 186 6.4 20.9 0.00 0.00 0.00 75 1012.7
20260502223931 14 309 8.0 20.9 0.00 0.00 0.00 75 1012.8
20260502223432 14 229 8.0 25.7 0.00 0.00 0.00 76 1012.9
20260502222939 14 252 12.9 24.1 0.00 0.00 0.00 75 1013.1
20260502222445 14 242 11.3 25.7 0.00 0.00 0.00 76 1013.2
20260502221931 14 289 8.0 20.9 0.00 0.00 0.00 76 1013.2
20260502221417 14 294 9.7 25.7 0.00 0.00 0.00 75 1013.2
20260502220923 14 206 6.4 25.7 0.00 0.00 0.00 75 1013.4
20260502220446 14 255 12.9 22.5 0.00 0.00 0.00 75 1013.5
20260502215930 14 275 6.4 17.7 0.00 0.00 0.00 75 1013.4
20260502215436 14 292 8.0 17.7 0.00 0.00 0.00 75 1013.4
20260502214922 14 284 6.4 12.9 0.00 0.00 0.00 75 1013.5
20260502214428 13 282 6.4 22.5 0.00 0.00 0.00 76 1013.5
20260502213936 13 287 8.0 20.9 0.00 0.00 0.00 75 1013.6
20260502213424 14 237 8.0 19.3 0.00 0.00 0.00 75 1013.5
20260502212930 14 273 9.7 19.3 0.00 0.00 0.00 74 1013.6
20260502212433 14 222 8.0 20.9 0.00 0.00 0.00 75 1013.5
20260502211921 14 301 11.3 24.1 0.00 0.00 0.00 75 1013.6
20260502211426 14 282 11.3 22.5 0.00 0.00 0.00 74 1013.6
20260502210934 14 261 11.3 22.5 0.00 0.00 0.00 74 1013.6
20260502210421 14 203 11.3 24.1 0.00 0.00 0.00 74 1013.7
20260502205924 14 268 11.3 25.7 0.00 0.00 0.00 74 1013.9
20260502205432 14 276 14.5 25.7 0.00 0.00 0.00 74 1013.9
20260502204932 14 262 9.7 24.1 0.00 0.00 0.00 74 1014.0
20260502204436 14 244 11.3 24.1 0.00 0.00 0.00 74 1014.1
20260502203952 14 306 8.0 32.2 0.00 0.00 0.00 74 1014.0
20260502203418 14 270 14.5 32.2 0.00 0.00 0.00 75 1014.0
20260502202923 14 208 11.3 32.2 0.00 0.00 0.00 74 1014.0
20260502202451 14 271 11.3 25.7 0.00 0.00 0.00 75 1014.1
20260502201938 14 324 12.9 25.7 0.00 0.00 0.00 75 1014.2
20260502201450 14 282 8.0 29.0 0.00 0.00 0.00 76 1014.2
20260502200935 14 271 9.7 27.4 0.00 0.00 0.00 76 1014.2
20260502200422 13 292 8.0 27.4 0.00 0.00 0.00 76 1014.3
20260502195928 13 282 17.7 29.0 0.00 0.00 0.00 75 1014.3
20260502195436 13 216 8.0 30.6 0.00 0.00 0.00 76 1014.3
20260502194922 13 292 11.3 30.6 0.00 0.00 0.00 76 1014.2
20260502194429 13 208 8.0 20.9 0.00 0.00 0.00 77 1014.2
20260502193931 13 205 9.7 22.5 0.00 0.00 0.00 77 1014.2
20260502193417 13 194 6.4 22.5 0.00 0.00 0.00 77 1014.3
20260502192923 14 307 12.9 22.5 0.00 0.00 0.00 76 1014.2
20260502192431 14 280 6.4 19.3 0.00 0.00 0.00 77 1014.2
20260502191918 13 263 9.7 17.7 0.00 0.00 0.00 77 1014.3
20260502191444 13 290 6.4 17.7 0.00 0.00 0.00 77 1014.4
20260502190929 13 268 8.0 19.3 0.00 0.00 0.00 78 1014.3
20260502190431 13 247 8.0 19.3 0.00 0.00 0.00 78 1014.2
20260502185925 13 172 4.8 19.3 0.00 0.00 0.00 79 1014.2
20260502185431 13 221 9.7 19.3 0.00 0.00 0.00 79 1014.2
20260502184918 13 295 6.4 12.9 0.00 0.00 0.00 79 1014.2
20260502184423 13 88 4.8 16.1 0.00 0.00 0.00 80 1014.3
20260502183929 13 284 8.0 19.3 0.00 0.00 0.00 80 1014.3
20260502183436 13 294 6.4 19.3 0.00 0.00 0.00 80 1014.3
20260502182923 13 256 8.0 14.5 0.00 0.00 0.00 80 1014.3
20260502182455 13 210 8.0 17.7 0.00 0.00 0.00 80 1014.3
20260502181941 13 207 9.7 17.7 0.00 0.00 0.00 80 1014.3
20260502181426 13 268 4.8 22.5 0.00 0.00 0.00 80 1014.3
20260502180933 13 238 8.0 22.5 0.00 0.00 0.00 80 1014.2
20260502180444 13 196 4.8 17.7 0.00 0.00 0.00 80 1014.2
20260502170450 12 280 11.3 22.5 0.00 0.00 0.00 81 1013.9
20260502163938 12 272 6.4 14.5 0.00 0.00 0.00 83 1013.9
20260502163453 12 227 4.8 17.7 0.00 0.00 0.00 83 1014.0
20260502162917 12 218 4.8 17.7 0.00 0.00 0.00 83 1013.9
20260502162418 12 222 4.8 14.5 0.00 0.00 0.00 84 1013.9
20260502161924 12 258 4.8 17.7 0.00 0.00 0.00 84 1014.0
20260502161433 12 268 9.7 17.7 0.00 0.00 0.00 84 1014.0
20260502160949 12 249 3.2 14.5 0.00 0.00 0.00 84 1013.9
20260502160435 12 199 6.4 14.5 0.00 0.00 0.00 85 1013.9
20260502151919 12 283 6.4 11.3 0.00 0.00 0.00 85 1013.7
20260502151424 12 228 3.2 14.5 0.00 0.00 0.00 85 1013.6
20260502150932 12 244 6.4 16.1 0.00 0.00 0.00 85 1013.6
20260502150420 12 239 4.8 20.9 0.00 0.00 0.00 85 1013.5
20260502130429 12 252 4.8 16.1 0.00 0.00 0.00 85 1012.6
20260502123445 12 268 4.8 14.5 0.00 0.00 0.00 85 1012.6
20260502122930 12 198 6.4 14.5 0.00 0.00 0.00 85 1012.7
20260502122416 12 256 3.2 12.9 0.00 0.00 0.00 85 1012.6
20260502121923 12 221 6.4 12.9 0.00 0.00 0.00 85 1012.6
20260502121427 12 258 4.8 12.9 0.00 0.00 0.00 85 1012.6
20260502120935 12 158 4.8 19.3 0.00 0.00 0.00 85 1012.6
20260502120420 12 209 9.7 19.3 0.00 0.00 0.00 85 1012.6
20260502115924 12 258 8.0 16.1 0.00 0.00 0.00 85 1012.5
20260502115433 12 219 6.4 25.7 0.00 0.00 0.00 85 1012.7
20260502114919 12 201 12.9 25.7 0.00 0.00 0.00 85 1012.5
20260502114427 12 262 9.7 22.5 0.00 0.00 0.00 85 1012.6
20260502113956 12 285 6.4 22.5 0.00 0.00 0.00 85 1012.7
20260502113422 12 249 6.4 20.9 0.00 0.00 0.00 85 1012.6
20260502112929 12 222 9.7 19.3 0.00 0.00 0.00 85 1012.6
20260502112436 12 205 8.0 14.5 0.00 0.00 0.00 85 1012.6
20260502111951 12 268 6.4 19.3 0.00 0.00 0.00 85 1012.6
20260502111436 12 222 6.4 19.3 0.00 0.00 0.00 85 1012.7
20260502110924 12 273 4.8 14.5 0.00 0.00 0.00 85 1012.7
20260502110428 12 268 4.8 14.5 0.00 0.00 0.00 85 1012.7
20260502105935 12 247 3.2 9.7 0.00 0.00 0.00 85 1012.6
20260502105422 12 177 4.8 11.3 0.00 0.00 0.00 85 1012.7
20260502104930 12 313 1.6 11.3 0.00 0.00 0.00 85 1012.7
20260502104436 12 203 3.2 9.7 0.00 0.00 0.00 85 1012.7
20260502103953 12 268 3.2 14.5 0.00 0.00 0.00 85 1012.8
20260502103418 12 210 9.7 14.5 0.00 0.00 0.00 85 1012.7
20260502102939 12 240 6.4 17.7 0.00 0.00 0.00 85 1012.7
20260502102427 12 212 4.8 17.7 0.00 0.00 0.00 85 1012.7
20260502101932 12 230 6.4 16.1 0.00 0.00 0.00 85 1012.8
20260502101418 12 233 3.2 11.3 0.00 0.00 0.00 85 1012.8
20260502100925 12 318 4.8 16.1 0.00 0.00 0.00 85 1012.9
20260502100430 12 301 4.8 20.9 0.00 0.00 0.00 85 1013.0
20260502091429 12 242 4.8 8.0 0.00 0.00 0.00 86 1013.5
20260502090935 12 243 3.2 6.4 0.00 0.00 0.00 86 1013.5
20260502090421 12 88 1.6 14.5 0.00 0.00 0.00 86 1013.5
20260502071426 12 289 6.4 14.5 0.00 0.00 0.00 86 1013.8
20260502070934 12 289 6.4 12.9 0.00 0.00 0.00 86 1013.8
20260502070438 12 277 4.8 17.7 0.00 0.00 0.00 86 1013.8
20260502065952 12 241 8.0 16.1 0.00 0.00 0.00 86 1013.9
20260502065438 12 196 8.0 17.7 0.00 0.00 0.00 86 1013.9
20260502064924 12 280 9.7 17.7 0.00 0.00 0.00 86 1013.9
20260502064429 12 256 9.7 16.1 0.00 0.00 0.00 86 1013.9
20260502063917 12 249 9.7 17.7 0.00 0.00 0.00 86 1013.9
20260502063419 12 242 9.7 17.7 0.00 0.00 0.00 86 1013.9
20260502062927 12 212 4.8 16.1 0.00 0.00 0.00 86 1013.9
20260502062434 12 236 8.0 20.9 0.00 0.00 0.00 86 1013.9
20260502061950 12 242 6.4 20.9 0.00 0.00 0.00 86 1013.8
20260502061417 12 308 8.0 20.9 0.00 0.00 0.00 86 1013.9
20260502060923 12 206 11.3 20.9 0.00 0.00 0.00 86 1014.0
20260502060430 12 259 11.3 20.9 0.00 0.00 0.00 86 1013.9
20260502055917 12 254 9.7 24.1 0.00 0.00 0.00 86 1013.9
20260502055420 12 219 14.5 24.1 0.00 0.00 0.00 85 1013.9
20260502054927 12 264 12.9 25.7 0.00 0.00 0.00 85 1013.9
20260502054434 12 268 12.9 25.7 0.00 0.00 0.00 85 1013.9
20260502053941 12 263 17.7 25.7 0.00 0.00 0.00 85 1013.9
20260502053427 12 249 16.1 30.6 0.00 0.00 0.00 85 1013.9
20260502052933 12 258 16.1 30.6 0.00 0.00 0.00 85 1013.9
20260502052426 12 249 14.5 27.4 0.00 0.00 0.00 85 1013.9
20260502051932 12 247 8.0 27.4 0.00 0.00 0.00 85 1014.0
20260502051419 12 314 12.9 24.1 0.00 0.00 0.00 85 1013.9
20260502050953 12 202 9.7 24.1 0.00 0.00 0.00 85 1013.9
20260502050418 12 270 12.9 25.7 0.00 0.00 0.00 85 1013.9
20260502045927 12 270 11.3 25.7 0.00 0.00 0.00 85 1013.9
20260502045435 12 268 8.0 25.7 0.00 0.00 0.00 85 1013.9
20260502044938 12 270 9.7 25.7 0.00 0.00 0.00 85 1013.9
20260502044453 12 276 12.9 20.9 0.00 0.00 0.00 85 1013.9
20260502043934 12 239 8.0 20.9 0.00 0.00 0.00 85 1013.9
20260502043450 12 275 8.0 25.7 0.00 0.00 0.00 85 1013.8
20260502042936 12 242 12.9 25.7 0.00 0.00 0.00 85 1013.7
20260502042423 12 270 14.5 25.7 0.00 0.00 0.00 85 1013.6
20260502041931 12 265 9.7 25.7 0.00 0.00 0.00 85 1013.5
20260502041417 12 276 14.5 24.1 0.00 0.00 0.00 85 1013.4
20260502040921 12 212 14.5 29.0 0.00 0.00 0.00 85 1013.3
20260502040429 12 248 12.9 29.0 0.00 0.00 0.00 85 1013.3
20260502035935 12 272 14.5 29.0 0.00 0.00 0.00 85 1013.3
20260502035423 12 264 16.1 27.4 0.00 0.00 0.00 85 1013.2
20260502034929 12 242 12.9 27.4 0.00 0.00 0.00 85 1013.2
20260502034438 12 282 12.9 22.5 0.00 0.00 0.00 85 1013.2
20260502033957 12 273 12.9 22.5 0.00 0.00 0.00 84 1013.1
20260502033437 12 215 12.9 24.1 0.00 0.00 0.00 84 1013.1
20260502032923 12 275 14.5 29.0 0.00 0.00 0.00 84 1013.0
20260502032432 12 303 16.1 29.0 0.00 0.00 0.00 84 1013.0
20260502031920 12 268 12.9 22.5 0.00 0.00 0.00 84 1013.0
20260502031450 12 242 11.3 20.9 0.00 0.00 0.00 84 1012.9
20260502030936 12 268 11.3 19.3 0.00 0.00 0.00 83 1013.0
20260502030450 12 213 9.7 20.9 0.00 0.00 0.00 83 1013.0
20260502025931 12 221 9.7 20.9 0.00 0.00 0.00 83 1012.9
20260502025437 12 222 3.2 14.5 0.00 0.00 0.00 83 1013.0
20260502024953 12 240 4.8 14.5 0.00 0.00 0.00 82 1012.9
20260502024449 12 247 6.4 11.3 0.00 0.00 0.00 82 1012.7
20260502023934 12 184 4.8 19.3 0.00 0.00 0.00 82 1012.8
20260502023423 12 128 8.0 19.3 0.00 0.00 0.00 82 1012.6
20260502022943 12 39 4.8 19.3 0.00 0.00 0.00 82 1012.5
20260502022428 12 66 4.8 19.3 0.00 0.00 0.00 82 1012.6
20260502021934 13 7 6.4 14.5 0.00 0.00 0.00 81 1012.6
20260502021451 13 134 8.0 14.5 0.00 0.00 0.00 81 1012.7
20260502020935 13 31 4.8 16.1 0.00 0.00 0.00 81 1012.7
20260502020421 13 130 6.4 25.7 0.00 0.00 0.00 82 1012.7
20260502015928 13 323 1.6 24.1 0.00 0.00 0.00 81 1012.8
20260502015430 13 116 11.3 24.1 0.00 0.00 0.00 81 1012.8
20260502014936 13 329 6.4 19.3 0.00 0.00 0.00 81 1012.7
20260502014424 13 268 6.4 19.3 0.00 0.00 0.00 80 1012.7
20260502013931 13 22 8.0 19.3 0.00 0.00 0.00 80 1012.8
20260502013417 13 75 4.8 19.3 0.00 0.00 0.00 80 1012.7
20260502012922 13 210 9.7 32.2 0.00 0.00 0.00 80 1012.6
20260502012429 13 285 12.9 30.6 0.00 0.00 0.00 80 1012.7
20260502011934 13 151 8.0 30.6 0.00 0.00 0.00 80 1012.6
20260502011435 14 282 11.3 25.7 0.00 0.00 0.00 79 1012.7
20260502010921 14 345 11.3 24.1 0.00 0.00 0.00 79 1012.7
20260502010427 14 62 9.7 27.4 0.00 0.00 0.00 79 1012.8
20260502005930 14 225 11.3 27.4 0.00 0.00 0.00 80 1012.7
20260502005434 14 301 11.3 27.4 0.00 0.00 0.00 79 1012.7
20260502004941 14 256 12.9 29.0 0.00 0.00 0.00 79 1012.7
20260502004457 14 256 12.9 29.0 0.00 0.00 0.00 79 1012.6
20260502003921 14 214 8.0 24.1 0.00 0.00 0.00 79 1012.8
20260502003426 14 313 11.3 24.1 0.00 0.00 0.00 78 1012.7
20260502002930 14 199 9.7 24.1 0.00 0.00 0.00 79 1012.7
20260502002435 14 15 11.3 19.3 0.00 0.00 0.00 79 1012.6
20260502001923 14 97 9.7 19.3 0.00 0.00 0.00 79 1012.7
20260502001430 14 32 9.7 24.1 0.00 0.00 0.00 78 1012.9
20260502000935 14 45 9.7 30.6 0.00 0.00 0.00 78 1012.9
20260502000421 14 323 11.3 30.6 0.00 0.00 0.00 78 1012.9
20260501235921 14 147 6.4 24.1 0.00 0.00 0.00 77 1013.1
20260501235446 14 319 6.4 24.1 0.00 0.00 0.00 77 1013.0